Date String (YYYY-MM-DD hh:mm:ss) UTC,Instrument flags,absolute air pressure of the measurement (hPa),sample flow rate (lpm),inlet stack bypass flow (lpm),air temperature of the measurement (°C),ambient temperature measured by the external sensor (°C),aerosol sample conditioner tube jacket temperature (°C),OPC LED temperature (°C),internal box temperature (°C),relative humidity of the measurement (%),span deviation,mass concentration of particles derived from Lorenz-Mie calculation of OPC scattering (μg/m³),mass concentration of particles derived from Lorenz-Mie calculation of OPC scattering (μg/m³),mass concentration of particles derived from Lorenz-Mie calculation of OPC scattering (μg/m³)
DateTimeUTC,F1_M11,P_M11,Q1_M11,Q2_M11,T1_M11,T2_M11,T3_M11,T4_M11,T5_M11,U1_M11,ZSPAN_M11,X2_M11,X0_M11,X1_M11
2024-01-24 16:00:00,SystemResetWarning,0827.1,4.99,000.00,021.2,020.3,000.0,029.5,022.6,17.5,0002.4,0007.25,0012.36,0006.82
2024-01-24 16:01:00,SystemResetWarning,0827.1,4.99,000.00,021.2,020.4,000.0,029.4,022.6,17.7,0002.1,0007.22,0011.60,0006.83
2024-01-24 16:02:00,SystemResetWarning,0827.2,5.01,000.00,021.2,020.4,000.0,029.5,022.6,18.7,0002.3,0007.20,0011.12,0006.84
2024-01-24 16:03:00,SystemResetWarning,0827.1,5.02,000.00,021.2,020.4,000.0,029.5,022.6,19.2,0002.7,0007.18,0011.55,0006.83
2024-01-24 16:04:00,SystemResetWarning,0827.1,5.00,000.00,021.2,020.4,000.0,029.5,022.6,19.1,0003.0,0007.20,0011.64,0006.83
2024-01-24 16:05:00,SystemResetWarning,0827.1,4.99,000.00,021.2,020.4,000.0,029.5,022.6,19.3,0002.8,0007.22,0011.46,0006.83
2024-01-24 16:06:00,SystemResetWarning,0827.1,4.99,000.00,021.2,020.4,000.0,029.5,022.6,18.9,0002.5,0007.20,0011.10,0006.81
2024-01-24 16:07:00,SystemResetWarning,0827.2,5.00,000.00,021.2,020.4,000.0,029.5,022.6,18.8,0002.1,0007.12,0010.99,0006.74
2024-01-24 16:08:00,SystemResetWarning,0827.1,5.00,000.00,021.2,020.4,000.0,029.5,022.6,18.4,0001.5,0007.04,0010.44,0006.67
2024-01-24 16:09:00,SystemResetWarning,0827.1,5.00,000.00,021.2,020.4,000.0,029.5,022.6,18.9,0001.0,0006.93,0010.07,0006.59
2024-01-24 16:10:00,SystemResetWarning,0827.2,5.01,000.00,021.2,020.4,000.0,029.5,022.6,21.1,0000.8,0006.87,0010.18,0006.54
2024-01-24 16:11:00,SystemResetWarning,0827.1,5.00,000.00,021.2,020.5,000.0,029.5,022.6,20.7,0000.7,0006.81,0010.13,0006.49
2024-01-24 16:12:00,SystemResetWarning,0827.2,5.00,000.00,021.2,020.5,000.0,029.5,022.7,19.9,0000.2,0006.76,0010.02,0006.44
2024-01-24 16:13:00,SystemResetWarning,0827.2,5.00,000.00,021.2,020.5,000.0,029.5,022.7,20.2,0000.0,0006.70,0009.83,0006.39
2024-01-24 16:14:00,SystemResetWarning,0827.1,5.00,000.00,021.2,020.5,000.0,029.5,022.7,20.7,0001.0,0006.68,0009.40,0006.37
2024-01-24 16:15:00,SystemResetWarning,0827.2,5.01,000.00,021.2,020.5,000.0,029.5,022.7,20.7,0001.2,0006.65,0009.28,0006.34
2024-01-24 16:16:00,SystemResetWarning,0827.1,4.99,000.00,021.2,020.5,000.0,029.5,022.7,20.1,0000.8,0006.60,0009.17,0006.32
2024-01-24 16:17:00,SystemResetWarning,0827.2,4.99,000.00,021.3,020.5,000.0,029.5,022.7,19.7,0001.6,0006.62,0009.27,0006.30
2024-01-24 16:18:00,SystemResetWarning,0827.2,5.00,000.00,021.3,020.5,000.0,029.5,022.7,19.2,0002.0,0006.65,0009.32,0006.32
2024-01-24 16:19:00,SystemResetWarning,0827.2,5.00,000.00,021.3,020.5,000.0,029.5,022.7,19.6,0002.6,0006.63,0009.28,0006.32
2024-01-24 16:20:00,SystemResetWarning,0827.2,5.00,000.00,021.3,020.6,000.0,029.6,022.8,20.3,0002.8,0006.66,0009.88,0006.33
2024-01-24 16:21:00,SystemResetWarning,0827.2,5.00,000.00,021.3,020.6,000.0,029.6,022.8,20.0,0003.0,0006.66,0010.07,0006.33
2024-01-24 16:22:00,SystemResetWarning,0827.2,5.00,000.00,021.3,020.6,000.0,029.6,022.8,19.6,0002.8,0006.68,0010.15,0006.33
2024-01-24 16:23:00,SystemResetWarning,0827.2,5.00,000.00,021.3,020.6,000.0,029.6,022.8,19.5,0002.9,0006.68,0010.19,0006.33
2024-01-24 16:24:00,SystemResetWarning,0827.2,5.00,000.00,021.4,020.7,000.0,029.6,022.8,19.1,0003.1,0006.68,0010.20,0006.32
2024-01-24 16:25:00,SystemResetWarning,0827.2,4.99,000.00,021.4,020.7,000.0,029.6,022.9,19.1,0002.9,0006.65,0010.17,0006.30
2024-01-24 16:26:00,SystemResetWarning,0827.2,4.99,000.00,021.4,020.7,000.0,029.6,022.9,19.4,0002.6,0006.63,0010.10,0006.29
2024-01-24 16:27:00,SystemResetWarning,0827.2,5.00,000.00,021.4,020.7,000.0,029.6,022.9,19.2,0002.3,0006.61,0010.09,0006.26
2024-01-24 16:28:00,SystemResetWarning,0827.3,5.00,000.00,021.4,020.7,000.0,029.6,022.9,19.3,0000.9,0006.58,0010.01,0006.25
2024-01-24 16:29:00,SystemResetWarning,0827.3,5.01,000.00,021.4,020.7,000.0,029.6,022.9,19.1,0001.5,0006.55,0009.94,0006.25
2024-01-24 16:30:00,SystemResetWarning,0827.3,5.00,000.00,021.4,020.7,000.0,029.7,023.0,18.9,0000.0,0006.57,0010.01,0006.25
2024-01-24 16:31:00,SystemResetWarning,0827.3,5.00,000.00,021.4,020.7,000.0,029.7,023.0,18.7,0000.2,0006.58,0009.65,0006.26
2024-01-24 16:32:00,SystemResetWarning,0827.3,5.00,000.00,021.5,020.7,000.0,029.7,023.0,19.0,0001.2,0006.57,0009.36,0006.27
2024-01-24 16:33:00,SystemResetWarning,0827.4,5.00,000.00,021.5,020.8,000.0,029.7,023.0,19.0,0001.5,0006.58,0009.27,0006.32
2024-01-24 16:34:00,SystemResetWarning,0827.3,5.00,000.00,021.5,020.8,000.0,029.7,023.0,19.3,0001.7,0006.63,0009.79,0006.36
2024-01-24 16:35:00,SystemResetWarning,0827.3,5.00,000.00,021.5,020.8,000.0,029.7,023.0,19.4,0001.7,0006.72,0010.19,0006.43
2024-01-24 16:36:00,SystemResetWarning,0827.4,5.00,000.00,021.5,020.8,000.0,029.7,023.0,19.5,0001.7,0006.80,0010.29,0006.50
2024-01-24 16:37:00,SystemResetWarning,0827.4,5.00,000.00,021.5,020.8,000.0,029.7,023.0,19.4,0001.8,0006.85,0010.42,0006.56
2024-01-24 16:38:00,SystemResetWarning,0827.4,5.00,000.00,021.5,020.8,000.0,029.7,023.0,19.6,0001.7,0006.94,0010.55,0006.64
2024-01-24 16:39:00,SystemResetWarning,0827.4,5.00,000.00,021.5,020.8,000.0,029.7,023.1,19.7,0001.4,0006.97,0010.57,0006.68
2024-01-24 16:40:00,SystemResetWarning,0827.4,5.00,000.00,021.5,020.8,000.0,029.8,023.1,19.7,0002.0,0007.00,0010.60,0006.72
2024-01-24 16:41:00,SystemResetWarning,0827.4,5.00,000.00,021.6,020.8,000.0,029.8,023.0,19.5,0002.5,0007.03,0010.68,0006.73
2024-01-24 16:42:00,SystemResetWarning,0827.4,5.00,000.00,021.6,020.8,000.0,029.8,023.1,19.5,0002.9,0007.03,0010.83,0006.73
2024-01-24 16:43:00,SystemResetWarning,0827.4,5.00,000.00,021.6,020.8,000.0,029.8,023.1,19.1,0002.7,0007.07,0010.80,0006.76
2024-01-24 16:44:00,SystemResetWarning,0827.4,5.00,000.00,021.6,020.9,000.0,029.8,023.1,18.7,0002.2,0007.06,0010.75,0006.75
2024-01-24 16:45:00,SystemResetWarning,0827.4,5.00,000.00,021.6,020.9,000.0,029.8,023.1,18.1,0002.0,0007.04,0010.32,0006.73
2024-01-24 16:46:00,SystemResetWarning,0827.4,5.00,000.00,021.6,020.9,000.0,029.8,023.1,17.9,0002.1,0007.00,0009.85,0006.71
2024-01-24 16:47:00,SystemResetWarning,0827.4,5.00,000.00,021.6,020.9,000.0,029.8,023.1,18.2,0002.2,0006.95,0010.16,0006.67
2024-01-24 16:48:00,SystemResetWarning,0827.4,4.99,000.00,021.6,020.9,000.0,029.9,023.1,18.0,0002.2,0006.87,0010.07,0006.60
2024-01-24 16:49:00,SystemResetWarning,0827.4,4.99,000.00,021.6,020.9,000.0,029.9,023.2,17.7,0002.1,0006.80,0009.97,0006.56
2024-01-24 16:50:00,SystemResetWarning,0827.4,5.00,000.00,021.6,020.9,000.0,029.9,023.2,17.6,0002.1,0006.76,0009.95,0006.51
2024-01-24 16:51:00,SystemResetWarning,0827.4,5.01,000.00,021.7,020.9,000.0,029.9,023.2,17.5,0001.3,0006.72,0009.93,0006.46
2024-01-24 16:52:00,SystemResetWarning,0827.4,5.01,000.00,021.7,020.9,000.0,029.9,023.2,17.7,0001.0,0006.70,0009.88,0006.43
2024-01-24 16:53:00,SystemResetWarning,0827.4,5.00,000.00,021.7,020.9,000.0,029.9,023.2,17.1,0001.4,0006.66,0009.93,0006.40
2024-01-24 16:54:00,SystemResetWarning,0827.4,4.99,000.00,021.7,020.9,000.0,029.9,023.2,16.6,0001.6,0006.61,0009.79,0006.33
2024-01-24 16:55:00,SystemResetWarning,0827.4,5.00,000.00,021.7,020.9,000.0,029.9,023.2,16.9,0002.2,0006.56,0009.93,0006.28
2024-01-24 16:56:00,SystemResetWarning,0827.4,4.99,000.00,021.7,021.0,000.0,029.9,023.2,16.5,0002.5,0006.54,0009.99,0006.23
2024-01-24 16:57:00,SystemResetWarning,0827.4,5.00,000.00,021.7,021.0,000.0,029.9,023.2,17.0,0002.1,0006.48,0009.96,0006.16
2024-01-24 16:58:00,SystemResetWarning,0827.4,5.00,000.00,021.7,021.0,000.0,030.0,023.2,17.7,0001.9,0006.44,0009.88,0006.12
2024-01-24 16:59:00,SystemResetWarning,0827.4,5.00,000.00,021.7,021.0,000.0,030.0,023.2,18.0,0002.0,0006.41,0010.14,0006.08
